SCOUT A DEB, 3122

Orbit data source: Space-Track

SCOUT A DEB, 3122 is space debris in LEO originally from a launch on Mon, 25 Sep 1967 UTC launched from the Air Force Western Test Range (AFWTR). Debris objects in space refer to the collection of defunct objects orbiting the Earth. Examples of debris include non-operational satellites, rocket bodies, and fragments generated from explosions, collisions, or faulty payload assembly.

Loading next visibility...
Identifier
3122, 1967-092D
Orbit
LEO
Country
Flag of USUS
Related business
Manufacturer
Unknown
Mission
Spacecraft
Bus & Motor
Unknown
Mass
Unknown
Launch date (UTC)
1967-09-25 (58 years ago)
Launch vehicle
Unknown
Launch site
Air Force Western Test Range (AFWTR)
Object type
Payload
Rocket body
Debris
Shape & HBR
Unknown shape, 0.1 m
Radar Cross Section
Small (<0.1 m²)

Expand to show TLE details & history
Last TLE update: 12 hours ago

TLE from 12 hours ago
0 SCOUT A DEB
1 03122U 67092D   25308.47018630  .00000236  00000-0  46358-3 0  9999
2 03122  89.0613 108.6477 0186986 127.8981 289.9435 13.25886213553242
Epoch: 2025-11-04T11:17Z
TLE epoch observation values (Epoch: 2025-11-04T11:17:04.096Z)
Latitude
55.8933°
Longitude
-103.19684°
Altitude
1,125.939 km
Speed
7.317 km/s
True Right ascension
07h 20m 06s
True Declination
55° 44' 29"
Sunlit
Object was in daylight at epoch
Visualization orbit readout
Latitude
Unknown
Longitude
Unknown
Altitude
Unknown
Speed
Unknown
Apparent Right ascension
Unknown
Apparent Declination
Unknown
Sunlit
N/A
Visualization observer readout
Local Sidereal Time
18:54:11
Azimuth
Unknown
Elevation
Unknown
Doppler factor
Unknown
Orbital elements
Apogee altitude
1,300.348 km
Perigee altitude
1,018.465 km
Semi-major axis
7,537.543 km
Eccentricity
0.0187
Inclination
89.0613°
RAAN
108.6477°
Arg. of periapsis
127.8981°
True anomaly
287.91354°
Mean anomaly
289.9435°
Eccentric anomaly
288.93009°
Mean motion
3.31664 °/min
Orbital period
108.54 mins
BSTAR
0.00046358
Loading maneuver chart data...
Computing Atmospheric mass density...
Loading historical data...
Loading historical data...
Loading historical data...
Loading historical data...
Loading historical data...
Loading historical data...
Loading historical data...

Documentation

Showing up to 5 results
|